Regional Weather Roundup
Issued by NWS

Current Version |  Previous Version |  Text Only |  Print | Product List |  Glossary On
Versions: 1 2 3 4 5 6 7 8 9 10 11 12 13 14 15 16 17 18 19 20 21 22 23 24 25 26 27 28 29 30 31 32 33 34 35 36 37 38 39 40 41 42 43 44 45 46 47 48 49 50
127
ASUS43 KDTX 280510
RWRMI
MICHIGAN HOURLY REGIONAL WEATHER ROUNDUP
NATIONAL WEATHER SERVICE DETROIT/PONTIAC MI
100 AM EDT TUE MAY 28 2024

NOTE: "FAIR" INDICATES FEW OR NO CLOUDS BELOW 12,000 FEET WITH NO
SIGNIFICANT WEATHER AND/OR OBSTRUCTION TO VISIBILITY.

MIZ047>049-052>055-059>063-066>070-074>076-081>083-280600-
SOUTHEAST LOWER MICHIGAN

CITY           SKY/WX    TMP DP  RH WIND       PRES   REMARKS
ADRIAN         MOCLDY    58  52  80 W7        29.81R TC  14
ALMA           CLOUDY    56  53  90 W8        29.79S TC  13
ANN ARBOR      CLOUDY    59  53  80 W10       29.76S TC  15
BAD AXE        LGT RAIN  57  54  89 NW7       29.73R TC  14
CARO           CLOUDY    58  56  92 NW6       29.74R TC  15
DETROIT CITY   CLOUDY    63  54  72 W12       29.74R TC  17
DETROIT        CLOUDY    61  53  75 W14G26    29.76R TC  16
FLINT          CLOUDY    59  57  93 NW9       29.76R TC  15
GROSSE ILE     CLOUDY    61  49  65 W9        29.75S TC  16
HILLSDALE      CLOUDY    55  49  78 W12       29.81S TC  13
HOWELL         DRIZZLE   57  56  96 W9        29.78R TC  14

CITY           SKY/WX    TMP DP  RH WIND       PRES   REMARKS
JACKSON        CLOUDY    57  53  86 W9        29.80R TC  14
LAMBERTVILLE   MOCLDY    59  53  79 W8        29.79S TC  15
LANSING        CLOUDY    56  54  93 W7        29.80R TC  13
LAPEER         LGT RAIN  58  58 100 NW3       29.75R TC  14
MASON          CLOUDY    58  53  82 W12       29.79S TC  15
MONROE         CLOUDY    60  53  75 W14G21    29.77S TC  16
MT. CLEMENS    MOCLDY    61  57  88 W8        29.70R TC  16
PONTIAC        LGT RAIN  58  55  90 W15       29.76R FOG     TC  14
PORT HOPE        N/A     59  54  83 W10G21    29.70R TC  15
PORT HURON     RAIN      57  55  94 CALM      29.73R TC  14
TRI CITIES     CLOUDY    58  55  90 NW12      29.77R TC  14
MIDLAND        CLOUDY    57  55  94 W7        29.77R TC  14
TROY           CLOUDY    60  55  82 W9G16     29.76S TC  16
SAGINAW HB     CLOUDY    57  57 100 W9        29.75R TC  14
$$
MIZ043>046-050>051-056>058-064>065-071>073-077>080-280600-
SOUTHWEST LOWER MICHIGAN

CITY           SKY/WX    TMP DP  RH WIND       PRES   REMARKS
BATTLE CREEK   MOCLDY    53  51  93 W7        29.83R TC  12
BENTON HARBOR  MOCLDY    57  54  89 CALM      29.84S TC  14
BIG RAPIDS     CLOUDY    55  52  92 W7        29.81R TC  13
COLDWATER      MOCLDY    55  53  91 W5        29.84R TC  13
FREMONT        CLOUDY    55  52  90 NW5       29.82R TC  13
HOLLAND        MOCLDY    55  52  89 W5        29.84R TC  13
GRAND RAPIDS   PTCLDY    54  52  93 W7        29.83R TC  12
IONIA          CLEAR     55  55 100 W7        29.81R TC  13
KALAMAZOO      CLOUDY    55  52  89 NW5       29.83S TC  13
LUDINGTON      MOCLDY    54  51  91 CALM      29.82S TC  12
MARSHALL       CLOUDY    54  51  90 W6        29.82S TC  12
MUSKEGON       PTCLDY    57  52  83 W6        29.83S TC  14
SOUTH HAVEN    CLOUDY    55  54  97 CALM      29.85R TC  13
$$
MIZ016>042-280600-
NORTHERN LOWER MICHIGAN

CITY           SKY/WX    TMP DP  RH WIND       PRES   REMARKS
ALPENA         LGT RAIN  56  55  97 W7        29.72R TC  13
BEAVER ISLAND  MOCLDY    51  51  98 W3        29.77R TC  11
BELLAIRE       CLOUDY    53  51  93 CALM      29.78R TC  12
CADILLAC       CLOUDY    54  52  94 W3        29.80R TC  12
CHARLEVOIX     MOCLDY    53  51  92 W5        29.78R TC  12
CHEBOYGAN      CLOUDY    54  52  94 W9        29.72S TC  12
FRANKFORT      CLOUDY    53  50  89 CALM      29.81S TC  12
GAYLORD        CLOUDY    55  50  83 W5        29.76S TC  13
HARBOR SPRINGS DRIZZLE   53  51  95 W3        29.76R TC  12
HOUGHTON LAKE  CLOUDY    54  53  97 NW8       29.78R TC  12
MANISTEE       PTCLDY    48  48 100 CALM      29.82R FOG     TC   9
OSCODA         RAIN      56  54  91 NW12      29.72R TC  14
PELLSTON       CLOUDY    54  52  93 W7        29.75R TC  12
ROGERS CITY    LGT RAIN  55  52  92 W9        29.72S TC  13
TRAVERSE CITY  CLOUDY    55  53  93 SW5       29.78R TC  13
$$
MIZ007>008-015-280600-
EASTERN UPPER MICHIGAN

CITY           SKY/WX    TMP DP  RH WIND       PRES   REMARKS
KINROSS        MOCLDY    50  46  86 NW10      29.72R TC  10
MACKINAC ISLAN CLOUDY    53  53 100 W10       29.73S TC  12
NEWBERRY       MOCLDY    50  46  87 NW5       29.75S TC  10
S. S. MARIE    MOCLDY    50  46  86 W13       29.70R TC  10
$$
MIZ004>006-011>014-085-280600-
CENTRAL UPPER MICHIGAN

CITY           SKY/WX    TMP DP  RH WIND       PRES   REMARKS
MANISTIQUE     CLOUDY    53  50  92 NW7       29.76R TC  12
ESCANABA       PTCLDY    53  53 100 NW3       29.80R TC  12
MENOMINEE      MOCLDY    57  54  89 VRB5      29.80S TC  14
SAWYER-GWINN   CLEAR     48  45  87 W3        29.79S TC   9
MUNISING         N/A     48  46  93 S5        29.77S TC   9
$$
MIZ001>003-009>011-084-280600-
WESTERN UPPER MICHIGAN

CITY           SKY/WX    TMP DP  RH WIND       PRES   REMARKS
IRON MOUNTAIN  PTCLDY    54  50  86 W5        29.80R TC  12
HOUGHTON       PTCLDY    51  45  79 NW12      29.79R TC  11
COPPER HARBOR    N/A     50  45  83 N5        29.79R TC  10
IRONWOOD       CLOUDY    55  51  86 SW6       29.87R TC  13
$$

ABBREVIATIONS USED IN REMARKS
   TC - TEMPERATURE IN CELSIUS
  WCI - WIND CHILL INDEX
   HX - HEAT INDEX
  VSB - VISIBILITY